This demonstration page uses our WeatherBlox Daily Observations layout. Learn more.

Left ArrowRight Arrow

Hourly Observations for July 31, 2021

Temp ( °F °C ) Dew Point ( °F °C ) Humidity (%) Winds ( mph kmh ) Pressure ( in mb ) Visibility ( mi km ) Precip ( " mm )
12:53 am 00:53 Clear 74 23.3 42 5.6 32 32 E 15 24 30.12 1020 10 16 0.00 0.00
1:53 am 01:53 Clear 74 23.3 41 5 31 31 E 15 24 30.11 1020 10 16 0.00 0.00
2:53 am 02:53 Clear 71 21.7 42 5.6 35 35 E 14 22 30.11 1020 10 16 0.00 0.00
3:53 am 03:53 Clear 69 20.6 43 6.1 39 39 NE 9 15 30.12 1020 10 16 0.00 0.00
4:53 am 04:53 Clear 68 20 43 6.1 40 40 NE 12 19 30.13 1020 10 16 0.00 0.00
5:53 am 05:53 Sunny 66 18.9 44 6.7 45 45 ENE 15 24 30.15 1021 10 16 0.00 0.00
6:53 am 06:53 Sunny 66 18.9 45 7.2 47 47 ENE 16 26 30.19 1022 10 16 0.00 0.00
7:53 am 07:53 Sunny 71 21.7 46 7.8 41 41 E 16 26 30.22 1023 10 16 0.00 0.00
8:53 am 08:53 Sunny 75 23.9 47 8.3 37 37 E 21 33 30.23 1024 10 16 0.00 0.00
9:53 am 09:53 Sunny 82 27.8 47 8.3 29 29 E 18 30 30.22 1023 10 16 0.00 0.00
10:53 am 10:53 Sunny 87 30.6 46 7.8 24 24 E 17 28 30.21 1023 10 16 0.00 0.00
11:53 am 11:53 Sunny 90 32.2 44 6.7 20 20 E 21 33 30.20 1023 10 16 0.00 0.00
12:53 pm 12:53 Sunny 92 33.3 44 6.7 19 19 ESE 18 30 30.19 1022 10 16 0.00 0.00
1:53 pm 13:53 Sunny 95 35 45 7.2 18 18 ESE 16 26 30.17 1022 10 16 0.00 0.00
2:53 pm 14:53 Sunny 95 35 44 6.7 17 17 E 17 28 30.15 1021 10 16 0.00 0.00
3:53 pm 15:53 Sunny 95 35 44 6.7 17 17 E 16 26 30.14 1021 10 16 0.00 0.00
4:53 pm 16:53 Sunny 95 35 45 7.2 18 18 E 18 30 30.12 1020 10 16 0.00 0.00
5:53 pm 17:53 Sunny 95 35 45 7.2 18 18 E 16 26 30.12 1020 10 16 0.00 0.00
6:53 pm 18:53 Sunny 92 33.3 46 7.8 21 21 E 21 33 30.12 1020 10 16 0.00 0.00
7:53 pm 19:53 Sunny 89 31.7 46 7.8 23 23 E 17 28 30.12 1020 10 16 0.00 0.00
8:53 pm 20:53 Sunny 84 28.9 46 7.8 27 27 E 12 19 30.14 1021 10 16 0.00 0.00
9:53 pm 21:53 Clear 80 26.7 47 8.3 31 31 E 12 19 30.14 1021 10 16 0.00 0.00
10:53 pm 22:53 Clear 80 26.7 46 7.8 30 30 E 14 22 30.14 1021 10 16 0.00 0.00
11:53 pm 23:53 Clear 79 26.1 46 7.8 31 31 E 14 22 30.14 1021 10 16 0.00 0.00

Powered by AerisWeather